FW0822 Weather Reports


time (UTC)temp
F
wind
direction
speed
knots
gust
knots
rain 1hr
in
rain 24hr
in
rain mn
in
humidity
%
barometer
mb
20260508064534 48 225 0.0 0.0 0.00 0.04 0.04 93 1015.3
20260508063016 48 225 0.0 0.0 0.00 0.04 0.04 93 1015.4
20260508060013 49 225 0.0 0.0 0.00 0.05 0.04 93 1015.4
20260508054526 50 225 0.0 0.0 0.00 0.05 0.04 93 1015.3
20260508053010 50 225 0.0 0.0 0.00 0.05 0.04 93 1015.4
20260508050009 50 225 0.0 0.0 0.00 0.05 0.04 93 1015.2
20260508044505 51 225 0.0 0.0 0.00 0.05 0.04 93 1015.2
20260508043003 51 225 0.0 0.0 0.00 0.05 0.04 93 1014.7
20260508040112 51 225 0.0 0.0 0.00 0.06 0.04 93 1014.7
20260508034559 51 225 0.0 0.0 0.00 0.06 0.04 93 1014.5
20260508033057 52 225 0.0 0.0 0.00 0.06 0.04 93 1014.6
20260508030057 52 225 0.0 0.0 0.00 0.07 0.04 93 1014.5
20260508024553 53 225 0.0 0.0 0.01 0.07 0.04 93 1014.3
20260508023050 53 225 0.0 0.0 0.01 0.07 0.04 94 1014.1
20260508020053 54 225 0.0 0.0 0.01 0.07 0.04 94 1013.5
20260508014545 54 225 0.0 0.0 0.01 0.07 0.04 94 1013.1
20260508013042 55 225 0.0 0.0 0.00 0.06 0.03 94 1012.9
20260508010040 55 225 0.0 0.0 0.00 0.06 0.03 94 1012.5
20260508004547 55 225 0.0 0.0 0.00 0.06 0.03 94 1012.3
20260508003046 55 225 0.0 0.0 0.00 0.06 0.03 94 1012.5
20260508000036 56 225 0.0 0.0 0.00 0.06 0.03 94 1012.3
20260507234545 56 225 0.0 0.0 0.00 0.06 0.03 94 1011.9
20260507233038 56 225 0.0 0.0 0.00 0.06 0.03 94 1011.9
20260507230032 57 225 0.0 0.0 0.00 0.06 0.03 94 1011.2
20260507224532 57 225 0.0 0.0 0.00 0.06 0.03 94 1011.1
20260507223031 57 225 0.0 0.0 0.00 0.06 0.03 94 1010.9
20260507220037 57 225 0.0 0.0 0.00 0.06 0.03 94 1010.6
20260507214530 57 225 0.0 0.0 0.00 0.06 0.03 94 1010.7
20260507213033 57 225 0.0 0.0 0.00 0.06 0.03 94 1010.3
20260507211632 57 225 0.0 0.0 0.00 0.06 0.03 94 1010.5
20260507210033 57 223 0.0 0.0 0.00 0.06 0.03 94 1010.3
20260507204531 57 223 0.0 0.0 0.01 0.06 0.03 93 1010.5
20260507203030 57 223 0.0 0.0 0.01 0.06 0.03 93 1010.2
20260507201631 57 223 0.0 0.0 0.01 0.06 0.03 93 1010.6
20260507200027 57 223 0.0 0.0 0.01 0.06 0.03 93 1010.5
20260507194534 58 223 0.0 0.0 0.00 0.05 0.02 93 1010.7
20260507193025 58 219 0.0 0.0 0.00 0.05 0.02 93 1010.3
20260507190036 59 219 0.0 0.0 0.00 0.05 0.02 93 1010.3
20260507184529 59 219 0.0 0.0 0.00 0.05 0.02 93 1010.4
20260507183020 60 219 0.0 0.0 0.00 0.05 0.02 93 1010.6
20260507180019 61 244 0.0 0.0 0.00 0.05 0.02 93 1010.3
20260507174514 62 244 0.0 0.0 0.00 0.05 0.02 94 1010.6
20260507173029 63 244 0.0 0.0 0.00 0.05 0.02 94 1010.3
20260507171610 63 244 0.0 0.0 0.00 0.05 0.02 94 1010.4
20260507170016 63 244 0.0 0.0 0.00 0.05 0.02 94 1010.5
20260507164519 63 244 0.0 0.0 0.00 0.05 0.02 94 1009.8
20260507163008 64 244 0.0 0.0 0.00 0.05 0.02 94 1009.6
20260507161607 64 244 0.0 0.0 0.00 0.05 0.02 95 1010.0
20260507160005 64 244 0.0 0.0 0.00 0.05 0.02 95 1010.0
20260507154505 64 231 0.0 0.0 0.00 0.05 0.02 95 1010.6
20260507153003 64 231 0.0 0.0 0.00 0.05 0.02 95 1010.5
20260507151607 64 231 0.0 0.0 0.01 0.05 0.02 95 1010.8
20260507150003 64 231 0.0 0.0 0.01 0.05 0.02 95 1011.0
20260507144502 64 231 0.0 0.0 0.01 0.05 0.02 95 1009.9
20260507143001 64 231 0.0 0.0 0.01 0.05 0.02 95 1010.5
20260507140002 64 231 0.0 0.0 0.00 0.04 0.01 94 1010.2
20260507134501 64 231 0.0 0.0 0.00 0.04 0.01 94 1009.8
20260507133100 63 231 0.0 0.0 0.00 0.04 0.01 94 1010.1
20260507133001 64 231 0.0 0.0 0.00 0.04 0.01 94 1010.2
20260507131700 64 231 0.0 0.0 0.00 0.04 0.01 94 1010.7
20260507130058 64 231 0.0 0.0 0.00 0.04 0.01 94 1011.4
20260507124604 64 231 0.0 0.0 0.00 0.04 0.01 94 1011.9
20260507123056 64 231 0.0 0.0 0.00 0.04 0.01 94 1011.4
20260507121657 64 231 0.0 0.0 0.01 0.04 0.01 94 1011.0
20260507120055 64 231 0.0 0.0 0.01 0.04 0.01 94 1011.1
20260507114608 64 231 0.0 0.0 0.01 0.04 0.01 94 1010.8
20260507113125 64 230 0.0 0.0 0.01 0.04 0.01 94 1010.7
20260507111655 64 230 0.0 0.0 0.00 0.03 0.00 94 1010.6
20260507110053 64 230 0.0 0.0 0.00 0.03 0.00 94 1010.8
20260507104552 64 230 0.0 0.0 0.00 0.03 0.00 94 1010.6
20260507103055 64 230 0.0 0.0 0.00 0.03 0.00 94 1010.5
20260507101652 64 230 0.0 0.0 0.00 0.03 0.00 94 1010.6
20260507100051 64 230 0.0 0.0 0.00 0.03 0.00 94 1010.7
20260507094550 64 230 0.0 0.0 0.00 0.03 0.00 94 1010.9
20260507093051 64 230 0.0 0.0 0.00 0.03 0.00 94 1010.6
20260507091653 64 230 0.0 0.0 0.00 0.03 0.00 94 1010.9
20260507090049 64 230 0.0 0.0 0.00 0.03 0.00 94 1010.6
20260507084557 64 230 0.0 0.0 0.00 0.03 0.00 94 1009.8
20260507083047 64 208 0.0 0.0 0.00 0.03 0.00 93 1010.5
20260507081646 64 208 0.0 0.0 0.00 0.03 0.00 93 1010.4
20260507080045 64 208 0.0 0.0 0.00 0.03 0.00 93 1010.4
20260507074549 64 207 0.0 0.0 0.00 0.03 0.00 93 1010.8
20260507073041 64 207 0.0 0.0 0.00 0.03 0.00 93 1011.2
20260507071542 64 207 0.0 0.0 0.00 0.03 0.00 92 1011.2
20260507070043 64 207 0.0 0.0 0.00 0.03 0.03 92 1011.4